Time,TemperatureF,DewpointF,PressureIn,WindDirection,WindDirectionDegrees,WindSpeedMPH,WindSpeedGustMPH,Humidity,HourlyPrecipIn,Conditions,Clouds,dailyrainin,SoftwareType,DateUTC
2013-01-14 00:01:00,27.8,25.3,29.04,West,269,5.6,10.4,90,0.00,,,0.82,proprietary,2013-01-14 05:01:00,
2013-01-14 00:02:00,27.7,25.0,29.05,WNW,285,6.1,7.8,89,0.00,,,0.82,proprietary,2013-01-14 05:02:00,
2013-01-14 00:03:00,27.7,25.1,29.05,West,268,5.5,8.5,89,0.00,,,0.82,proprietary,2013-01-14 05:03:00,
2013-01-14 00:09:00,27.5,24.7,29.05,WNW,294,5.6,7.4,88,0.00,,,0.00,proprietary,2013-01-14 05:09:00,
2013-01-14 00:15:00,27.4,24.5,29.05,WNW,289,6.6,9.4,88,0.00,,,0.00,proprietary,2013-01-14 05:15:00,
2013-01-14 00:20:00,27.4,24.5,29.05,WNW,285,4.2,8.1,88,0.00,,,0.00,proprietary,2013-01-14 05:20:00,
2013-01-14 00:25:00,27.2,24.0,29.05,WNW,298,4.1,5.9,87,0.00,,,0.00,proprietary,2013-01-14 05:25:00,
2013-01-14 00:30:00,27.2,24.1,29.05,WNW,290,7.8,10.0,87,0.00,,,0.00,proprietary,2013-01-14 05:30:00,
2013-01-14 00:36:00,27.1,23.9,29.05,WNW,296,6.4,9.8,87,0.00,,,0.00,proprietary,2013-01-14 05:36:00,
2013-01-14 00:41:00,27.1,23.7,29.06,WNW,282,3.3,5.8,87,0.00,,,0.00,proprietary,2013-01-14 05:41:00,
2013-01-14 00:46:00,27.0,23.7,29.06,WNW,282,4.5,6.3,86,0.00,,,0.00,proprietary,2013-01-14 05:46:00,
2013-01-14 00:51:00,27.0,23.7,29.06,West,278,4.0,5.6,86,0.00,,,0.00,proprietary,2013-01-14 05:51:00,
2013-01-14 00:56:00,26.9,22.9,29.06,WNW,285,4.9,9.3,84,0.00,,,0.00,proprietary,2013-01-14 05:56:00,
2013-01-14 01:01:00,26.9,22.4,29.07,WNW,290,7.1,12.3,83,0.00,,,0.00,proprietary,2013-01-14 06:01:00,
2013-01-14 01:06:00,26.8,22.1,29.07,West,273,3.9,6.7,82,0.00,,,0.00,proprietary,2013-01-14 06:06:00,
2013-01-14 01:11:00,26.8,22.3,29.07,West,269,3.8,5.1,82,0.00,,,0.00,proprietary,2013-01-14 06:11:00,
2013-01-14 01:16:00,26.7,22.2,29.08,WNW,296,7.0,9.3,82,0.00,,,0.00,proprietary,2013-01-14 06:16:00,
2013-01-14 01:21:00,26.5,21.9,29.08,WNW,286,6.4,7.7,82,0.00,,,0.00,proprietary,2013-01-14 06:21:00,
2013-01-14 01:27:00,26.4,21.7,29.08,WNW,287,3.1,6.2,82,0.00,,,0.00,proprietary,2013-01-14 06:27:00,
2013-01-14 01:33:00,26.2,21.3,29.09,West,271,6.6,9.2,81,0.00,,,0.00,proprietary,2013-01-14 06:33:00,
2013-01-14 01:38:00,26.2,21.2,29.09,West,268,4.7,8.0,81,0.00,,,0.00,proprietary,2013-01-14 06:38:00,
2013-01-14 01:44:00,26.0,20.9,29.09,WNW,285,6.3,9.8,80,0.00,,,0.00,proprietary,2013-01-14 06:44:00,
2013-01-14 01:49:00,26.0,21.3,29.09,West,264,3.0,5.1,82,0.00,,,0.00,proprietary,2013-01-14 06:49:00,
2013-01-14 01:55:00,26.0,21.6,29.09,West,265,3.5,6.0,83,0.00,,,0.00,proprietary,2013-01-14 06:55:00,
2013-01-14 02:00:00,25.8,21.4,29.09,WSW,251,6.9,8.2,83,0.00,,,0.00,proprietary,2013-01-14 07:00:00,
2013-01-14 02:05:00,25.6,21.1,29.10,West,260,3.4,7.2,83,0.00,,,0.00,proprietary,2013-01-14 07:05:00,
2013-01-14 02:10:00,25.4,21.1,29.10,WSW,254,4.6,7.3,83,0.00,,,0.00,proprietary,2013-01-14 07:10:00,
2013-01-14 02:16:00,25.3,20.9,29.10,WNW,291,4.7,6.8,82,0.00,,,0.00,proprietary,2013-01-14 07:16:00,
2013-01-14 02:22:00,25.3,21.0,29.11,WNW,283,3.4,5.4,83,0.00,,,0.00,proprietary,2013-01-14 07:22:00,
2013-01-14 02:28:00,25.2,21.0,29.12,WNW,285,3.3,6.7,83,0.00,,,0.00,proprietary,2013-01-14 07:28:00,
2013-01-14 02:33:00,25.1,20.7,29.12,West,274,4.5,5.7,82,0.00,,,0.00,proprietary,2013-01-14 07:33:00,
2013-01-14 02:38:00,24.9,20.5,29.12,WNW,290,8.9,12.2,82,0.00,,,0.00,proprietary,2013-01-14 07:38:00,
2013-01-14 02:43:00,24.5,19.6,29.13,WNW,295,7.1,12.3,81,0.00,,,0.00,proprietary,2013-01-14 07:43:00,
2013-01-14 02:48:00,24.2,19.5,29.13,West,259,3.8,6.3,81,0.00,,,0.00,proprietary,2013-01-14 07:48:00,
2013-01-14 02:53:00,24.1,19.4,29.14,West,266,2.7,4.2,82,0.00,,,0.00,proprietary,2013-01-14 07:53:00,
2013-01-14 02:58:00,24.1,19.6,29.14,NW,307,5.2,7.7,82,0.00,,,0.00,proprietary,2013-01-14 07:58:00,
2013-01-14 03:03:00,24.0,19.7,29.14,West,271,5.8,7.7,83,0.00,,,0.00,proprietary,2013-01-14 08:03:00,
2013-01-14 03:08:00,24.0,19.6,29.15,West,280,6.0,11.5,82,0.00,,,0.00,proprietary,2013-01-14 08:08:00,
2013-01-14 03:13:00,24.0,19.6,29.16,West,269,7.2,11.2,83,0.00,,,0.00,proprietary,2013-01-14 08:13:00,
2013-01-14 03:18:00,23.8,19.4,29.16,WNW,289,5.6,8.8,82,0.00,,,0.00,proprietary,2013-01-14 08:18:00,
2013-01-14 03:23:00,23.5,19.0,29.16,WNW,294,7.1,11.0,82,0.00,,,0.00,proprietary,2013-01-14 08:23:00,
2013-01-14 03:28:00,23.4,19.0,29.16,West,271,7.7,11.8,83,0.00,,,0.00,proprietary,2013-01-14 08:28:00,
2013-01-14 03:33:00,23.2,18.8,29.17,WSW,254,5.8,10.5,82,0.00,,,0.00,proprietary,2013-01-14 08:33:00,
2013-01-14 03:38:00,23.2,19.0,29.18,West,261,4.0,5.4,83,0.00,,,0.00,proprietary,2013-01-14 08:38:00,
2013-01-14 03:43:00,23.1,18.7,29.18,West,263,4.4,10.9,82,0.00,,,0.00,proprietary,2013-01-14 08:43:00,
2013-01-14 03:48:00,23.1,18.8,29.18,West,271,8.8,12.1,83,0.00,,,0.00,proprietary,2013-01-14 08:48:00,
2013-01-14 03:54:00,23.0,18.9,29.19,West,277,6.1,10.3,83,0.00,,,0.00,proprietary,2013-01-14 08:54:00,
2013-01-14 03:59:00,23.0,18.8,29.19,West,266,2.7,4.7,83,0.00,,,0.00,proprietary,2013-01-14 08:59:00,
2013-01-14 04:04:00,23.0,18.8,29.19,WSW,249,3.5,6.7,83,0.00,,,0.00,proprietary,2013-01-14 09:04:00,
2013-01-14 04:09:00,23.1,19.1,29.19,WNW,295,5.2,8.2,84,0.00,,,0.00,proprietary,2013-01-14 09:09:00,
2013-01-14 04:14:00,23.1,19.0,29.19,West,267,4.0,5.2,84,0.00,,,0.00,proprietary,2013-01-14 09:14:00,
2013-01-14 04:19:00,23.1,18.9,29.18,West,280,5.4,9.4,83,0.00,,,0.00,proprietary,2013-01-14 09:19:00,
2013-01-14 04:24:00,23.1,19.0,29.18,WNW,293,6.8,8.0,84,0.00,,,0.00,proprietary,2013-01-14 09:24:00,
2013-01-14 04:29:00,22.9,18.0,29.18,WNW,301,14.2,19.0,81,0.00,,,0.00,proprietary,2013-01-14 09:29:00,
2013-01-14 04:34:00,22.7,18.0,29.18,WNW,301,8.4,11.8,81,0.00,,,0.00,proprietary,2013-01-14 09:34:00,
2013-01-14 04:39:00,22.7,18.0,29.18,WNW,292,7.6,10.5,82,0.00,,,0.00,proprietary,2013-01-14 09:39:00,
2013-01-14 04:44:00,22.6,18.0,29.18,WNW,291,8.4,10.9,82,0.00,,,0.00,proprietary,2013-01-14 09:44:00,
2013-01-14 04:49:00,22.6,17.8,29.19,WNW,298,8.4,10.3,81,0.00,,,0.00,proprietary,2013-01-14 09:49:00,
2013-01-14 04:54:00,22.5,17.8,29.19,WNW,302,9.7,14.6,81,0.00,,,0.00,proprietary,2013-01-14 09:54:00,
2013-01-14 04:59:00,22.5,17.8,29.19,NW,307,11.9,16.6,81,0.00,,,0.00,proprietary,2013-01-14 09:59:00,
2013-01-14 05:04:00,22.5,18.0,29.19,NW,314,10.9,12.8,82,0.00,,,0.00,proprietary,2013-01-14 10:04:00,
2013-01-14 05:09:00,22.4,17.6,29.20,West,279,9.0,14.1,81,0.00,,,0.00,proprietary,2013-01-14 10:09:00,
2013-01-14 05:14:00,22.2,17.6,29.20,West,281,8.9,14.3,81,0.00,,,0.00,proprietary,2013-01-14 10:14:00,
2013-01-14 05:19:00,22.1,17.3,29.20,WNW,290,7.8,11.4,81,0.00,,,0.00,proprietary,2013-01-14 10:19:00,
2013-01-14 05:24:00,22.1,17.2,29.21,WNW,291,10.5,19.5,81,0.00,,,0.00,proprietary,2013-01-14 10:24:00,
2013-01-14 05:29:00,22.2,17.4,29.21,WNW,290,4.4,7.7,81,0.00,,,0.00,proprietary,2013-01-14 10:29:00,
2013-01-14 05:34:00,22.1,17.2,29.21,WNW,292,7.9,12.4,81,0.00,,,0.00,proprietary,2013-01-14 10:34:00,
2013-01-14 05:39:00,22.1,17.1,29.21,WNW,284,3.0,6.3,80,0.00,,,0.00,proprietary,2013-01-14 10:39:00,
2013-01-14 05:44:00,22.1,17.2,29.22,WNW,298,13.2,17.4,81,0.00,,,0.00,proprietary,2013-01-14 10:44:00,
2013-01-14 05:49:00,22.1,17.2,29.22,WNW,290,10.7,16.4,81,0.00,,,0.00,proprietary,2013-01-14 10:49:00,
2013-01-14 05:54:00,22.1,17.3,29.22,WNW,296,9.0,11.8,81,0.00,,,0.00,proprietary,2013-01-14 10:54:00,
2013-01-14 05:59:00,22.2,17.5,29.22,West,276,4.5,5.8,81,0.00,,,0.00,proprietary,2013-01-14 10:59:00,
2013-01-14 06:04:00,22.2,17.7,29.23,WNW,287,5.4,7.4,82,0.00,,,0.00,proprietary,2013-01-14 11:04:00,
2013-01-14 06:09:00,22.2,17.6,29.23,WNW,283,4.6,6.8,82,0.00,,,0.00,proprietary,2013-01-14 11:09:00,
2013-01-14 06:14:00,22.2,17.6,29.23,WNW,290,4.9,7.4,82,0.00,,,0.00,proprietary,2013-01-14 11:14:00,
2013-01-14 06:19:00,22.3,17.7,29.23,West,281,4.8,6.6,82,0.00,,,0.00,proprietary,2013-01-14 11:19:00,
2013-01-14 06:24:00,22.3,17.6,29.23,West,280,3.3,6.6,81,0.00,,,0.00,proprietary,2013-01-14 11:24:00,
2013-01-14 06:29:00,22.3,17.6,29.24,West,275,3.2,5.1,81,0.00,,,0.00,proprietary,2013-01-14 11:29:00,
2013-01-14 06:34:00,22.3,17.4,29.24,WNW,284,5.3,8.4,81,0.00,,,0.00,proprietary,2013-01-14 11:34:00,
2013-01-14 06:39:00,22.2,17.2,29.25,WNW,303,13.7,18.7,80,0.00,,,0.00,proprietary,2013-01-14 11:39:00,
2013-01-14 06:44:00,22.1,17.1,29.25,WNW,297,12.4,17.4,80,0.00,,,0.00,proprietary,2013-01-14 11:44:00,
2013-01-14 06:49:00,22.1,17.1,29.25,WNW,298,10.1,13.4,80,0.00,,,0.00,proprietary,2013-01-14 11:49:00,
2013-01-14 06:54:00,22.1,17.1,29.26,NW,307,9.5,12.4,80,0.00,,,0.00,proprietary,2013-01-14 11:54:00,
2013-01-14 06:59:00,22.0,16.7,29.25,WNW,299,11.5,15.9,79,0.00,,,0.00,proprietary,2013-01-14 11:59:00,
2013-01-14 07:04:00,21.9,16.9,29.25,WNW,296,6.9,9.4,80,0.00,,,0.00,proprietary,2013-01-14 12:04:00,
2013-01-14 07:09:00,22.0,17.1,29.25,WNW,294,6.4,9.6,81,0.00,,,0.00,proprietary,2013-01-14 12:09:00,
2013-01-14 07:14:00,21.9,17.0,29.26,WNW,295,5.3,7.1,81,0.00,,,0.00,proprietary,2013-01-14 12:14:00,
2013-01-14 07:19:00,22.0,17.4,29.26,WNW,301,7.6,9.1,81,0.00,,,0.00,proprietary,2013-01-14 12:19:00,
2013-01-14 07:24:00,22.1,17.2,29.26,NW,305,9.2,11.7,81,0.00,,,0.00,proprietary,2013-01-14 12:24:00,
2013-01-14 07:29:00,22.0,17.4,29.27,WNW,299,9.4,11.6,81,0.00,,,0.00,proprietary,2013-01-14 12:29:00,
2013-01-14 07:34:00,22.0,17.4,29.27,WNW,295,6.2,8.9,81,0.00,,,0.00,proprietary,2013-01-14 12:34:00,
2013-01-14 07:39:00,22.1,17.5,29.27,NW,305,5.9,8.6,82,0.00,,,0.00,proprietary,2013-01-14 12:39:00,
2013-01-14 07:44:00,22.1,17.5,29.27,NW,311,8.5,12.3,82,0.00,,,0.00,proprietary,2013-01-14 12:44:00,
2013-01-14 07:49:00,22.1,17.6,29.28,NW,313,8.3,9.8,82,0.00,,,0.00,proprietary,2013-01-14 12:49:00,
2013-01-14 07:54:00,22.1,17.7,29.28,WNW,292,4.0,7.1,82,0.00,,,0.00,proprietary,2013-01-14 12:54:00,
2013-01-14 07:59:00,22.0,17.5,29.28,NW,321,8.2,12.1,82,0.00,,,0.00,proprietary,2013-01-14 12:59:00,
2013-01-14 08:04:00,21.8,17.1,29.29,NW,310,11.3,13.6,81,0.00,,,0.00,proprietary,2013-01-14 13:04:00,
2013-01-14 08:09:00,21.6,16.6,29.29,NW,304,11.0,13.6,80,0.00,,,0.00,proprietary,2013-01-14 13:09:00,
2013-01-14 08:14:00,21.4,16.4,29.30,WNW,296,10.3,16.1,80,0.00,,,0.00,proprietary,2013-01-14 13:14:00,
2013-01-14 08:19:00,21.1,15.8,29.30,NW,307,12.1,16.7,79,0.00,,,0.00,proprietary,2013-01-14 13:19:00,
2013-01-14 08:24:00,21.0,15.6,29.30,NW,307,11.3,14.5,78,0.00,,,0.00,proprietary,2013-01-14 13:24:00,
2013-01-14 08:29:00,21.0,15.2,29.30,NW,310,11.5,12.8,78,0.00,,,0.00,proprietary,2013-01-14 13:29:00,
2013-01-14 08:34:00,20.9,15.0,29.31,NW,310,11.4,13.5,77,0.00,,,0.00,proprietary,2013-01-14 13:34:00,
2013-01-14 08:39:00,20.9,14.6,29.31,NW,311,13.4,16.2,76,0.00,,,0.00,proprietary,2013-01-14 13:39:00,
2013-01-14 08:44:00,20.8,14.5,29.32,NW,307,10.8,13.3,76,0.00,,,0.00,proprietary,2013-01-14 13:44:00,
2013-01-14 08:49:00,20.8,14.4,29.32,NW,307,13.3,16.8,75,0.00,,,0.00,proprietary,2013-01-14 13:49:00,
2013-01-14 08:54:00,20.8,14.4,29.32,NW,310,8.1,10.8,75,0.00,,,0.00,proprietary,2013-01-14 13:54:00,
2013-01-14 08:59:00,20.7,14.0,29.32,WNW,284,4.9,7.0,74,0.00,,,0.00,proprietary,2013-01-14 13:59:00,
2013-01-14 09:04:00,20.8,14.5,29.32,WNW,303,7.7,8.9,76,0.00,,,0.00,proprietary,2013-01-14 14:04:00,
2013-01-14 09:09:00,20.8,14.2,29.32,WNW,301,8.8,14.1,75,0.00,,,0.00,proprietary,2013-01-14 14:09:00,
2013-01-14 09:14:00,20.7,13.7,29.32,WNW,301,11.4,14.9,73,0.00,,,0.00,proprietary,2013-01-14 14:14:00,
2013-01-14 09:19:00,20.6,13.9,29.32,WNW,288,6.7,8.1,74,0.00,,,0.00,proprietary,2013-01-14 14:19:00,
2013-01-14 09:24:00,20.9,14.2,29.32,NW,304,6.2,8.1,74,0.00,,,0.00,proprietary,2013-01-14 14:24:00,
2013-01-14 09:29:00,21.1,14.3,29.32,WNW,302,8.2,9.9,74,0.00,,,0.00,proprietary,2013-01-14 14:29:00,
2013-01-14 09:34:00,21.0,14.3,29.33,NW,312,12.6,15.6,74,0.00,,,0.00,proprietary,2013-01-14 14:34:00,
2013-01-14 09:39:00,21.0,14.4,29.33,WNW,297,7.9,12.8,75,0.00,,,0.00,proprietary,2013-01-14 14:39:00,
2013-01-14 09:44:00,21.0,14.4,29.33,WNW,293,6.4,9.8,75,0.00,,,0.00,proprietary,2013-01-14 14:44:00,
2013-01-14 09:49:00,21.1,14.9,29.34,WNW,297,6.9,10.4,76,0.00,,,0.00,proprietary,2013-01-14 14:49:00,
2013-01-14 09:54:00,21.3,15.2,29.34,NW,307,6.8,8.1,76,0.00,,,0.00,proprietary,2013-01-14 14:54:00,
2013-01-14 09:59:00,21.4,15.1,29.34,NW,320,9.0,13.0,76,0.00,,,0.00,proprietary,2013-01-14 14:59:00,
2013-01-14 10:04:00,21.3,14.9,29.34,NNW,337,6.8,8.2,75,0.00,,,0.00,proprietary,2013-01-14 15:04:00,
2013-01-14 10:09:00,21.5,15.2,29.35,NW,304,7.6,9.8,76,0.00,,,0.00,proprietary,2013-01-14 15:09:00,
2013-01-14 10:14:00,21.5,15.3,29.35,WNW,286,5.3,8.4,76,0.00,,,0.00,proprietary,2013-01-14 15:14:00,
2013-01-14 10:19:00,21.3,15.0,29.35,NW,310,11.4,14.8,76,0.00,,,0.00,proprietary,2013-01-14 15:19:00,
2013-01-14 10:24:00,21.2,14.6,29.35,NW,306,11.7,13.9,75,0.00,,,0.00,proprietary,2013-01-14 15:24:00,
2013-01-14 10:29:00,21.3,14.7,29.35,NW,318,7.3,9.5,75,0.00,,,0.00,proprietary,2013-01-14 15:29:00,
2013-01-14 10:34:00,21.5,15.0,29.35,NW,313,7.0,8.9,75,0.00,,,0.00,proprietary,2013-01-14 15:34:00,
2013-01-14 10:39:00,21.5,14.9,29.35,NW,308,6.1,8.3,75,0.00,,,0.00,proprietary,2013-01-14 15:39:00,
2013-01-14 10:44:00,21.6,14.9,29.36,NW,319,9.1,10.6,74,0.00,,,0.00,proprietary,2013-01-14 15:44:00,
2013-01-14 10:49:00,21.7,15.0,29.36,WNW,297,6.1,8.7,74,0.00,,,0.00,proprietary,2013-01-14 15:49:00,
2013-01-14 10:54:00,21.8,15.4,29.36,WNW,291,2.8,6.1,75,0.00,,,0.00,proprietary,2013-01-14 15:54:00,
2013-01-14 10:59:00,21.8,15.0,29.36,NW,310,5.9,7.4,74,0.00,,,0.00,proprietary,2013-01-14 15:59:00,
2013-01-14 11:04:00,21.9,14.8,29.36,WNW,289,4.5,6.3,73,0.00,,,0.00,proprietary,2013-01-14 16:04:00,
2013-01-14 11:09:00,22.0,15.7,29.35,NW,304,5.6,7.6,76,0.00,,,0.00,proprietary,2013-01-14 16:09:00,
2013-01-14 11:14:00,22.0,15.4,29.35,NW,316,5.2,7.1,75,0.00,,,0.00,proprietary,2013-01-14 16:14:00,
2013-01-14 11:19:00,22.0,15.3,29.35,NNW,337,3.3,4.2,74,0.00,,,0.00,proprietary,2013-01-14 16:19:00,
2013-01-14 11:24:00,21.9,14.7,29.35,North,0,5.8,8.2,73,0.00,,,0.00,proprietary,2013-01-14 16:24:00,
2013-01-14 11:29:00,22.0,15.5,29.35,North,359,3.2,4.1,75,0.00,,,0.00,proprietary,2013-01-14 16:29:00,
2013-01-14 11:34:00,22.1,15.4,29.35,NNW,337,4.6,6.6,75,0.00,,,0.00,proprietary,2013-01-14 16:34:00,
2013-01-14 11:39:00,22.1,15.3,29.35,NNW,334,5.3,6.6,74,0.00,,,0.00,proprietary,2013-01-14 16:39:00,
2013-01-14 11:44:00,21.9,15.3,29.34,NNW,333,7.0,9.6,75,0.00,,,0.00,proprietary,2013-01-14 16:44:00,
2013-01-14 11:49:00,21.8,15.2,29.34,North,3,7.8,8.7,75,0.00,,,0.00,proprietary,2013-01-14 16:49:00,
2013-01-14 11:54:00,21.8,15.3,29.34,NNW,347,2.2,2.7,75,0.00,,,0.00,proprietary,2013-01-14 16:54:00,
2013-01-14 11:59:00,22.2,15.7,29.34,NNW,331,5.5,7.1,75,0.00,,,0.00,proprietary,2013-01-14 16:59:00,
2013-01-14 12:04:00,22.0,15.5,29.34,NW,307,6.3,7.6,75,0.00,,,0.00,proprietary,2013-01-14 17:04:00,
2013-01-14 12:09:00,22.0,15.3,29.33,NNW,329,2.2,4.5,74,0.00,,,0.00,proprietary,2013-01-14 17:09:00,
2013-01-14 12:14:00,22.2,15.6,29.32,NNW,327,5.4,6.8,75,0.00,,,0.00,proprietary,2013-01-14 17:14:00,
2013-01-14 12:19:00,22.2,15.5,29.32,NW,322,4.3,5.0,74,0.00,,,0.00,proprietary,2013-01-14 17:19:00,
2013-01-14 12:24:00,22.0,15.0,29.31,North,351,7.8,9.7,73,0.00,,,0.00,proprietary,2013-01-14 17:24:00,
2013-01-14 12:29:00,22.1,15.0,29.32,NW,317,6.0,7.5,73,0.00,,,0.00,proprietary,2013-01-14 17:29:00,
2013-01-14 12:34:00,22.0,14.5,29.32,NNW,328,4.3,7.1,72,0.00,,,0.00,proprietary,2013-01-14 17:34:00,
2013-01-14 12:39:00,22.0,15.1,29.32,WNW,294,4.9,7.0,74,0.00,,,0.00,proprietary,2013-01-14 17:39:00,
2013-01-14 12:44:00,22.2,15.7,29.32,NW,313,4.2,6.7,75,0.00,,,0.00,proprietary,2013-01-14 17:44:00,
2013-01-14 12:49:00,22.6,15.4,29.32,NW,309,7.3,9.2,73,0.00,,,0.00,proprietary,2013-01-14 17:49:00,
2013-01-14 12:54:00,22.3,14.4,29.32,NNW,342,6.0,8.1,71,0.00,,,0.00,proprietary,2013-01-14 17:54:00,
2013-01-14 12:59:00,22.4,14.7,29.32,WNW,301,5.9,7.0,71,0.00,,,0.00,proprietary,2013-01-14 17:59:00,
2013-01-14 13:04:00,22.2,14.7,29.32,WNW,290,4.4,5.6,72,0.00,,,0.00,proprietary,2013-01-14 18:04:00,
2013-01-14 13:09:00,21.9,14.6,29.32,NW,315,4.9,8.4,73,0.00,,,0.00,proprietary,2013-01-14 18:09:00,
2013-01-14 13:16:00,22.2,14.9,29.31,NNW,341,4.7,6.1,72,0.00,,,0.00,proprietary,2013-01-14 18:16:00,
2013-01-14 13:17:00,22.6,14.9,29.32,NNW,337,5.0,6.2,72,0.00,,,0.00,proprietary,2013-01-14 18:17:00,
2013-01-14 13:27:00,22.6,15.1,29.32,North,350,6.6,8.2,72,0.00,,,0.00,proprietary,2013-01-14 18:27:00,
2013-01-14 13:33:00,22.6,15.2,29.32,NNW,340,6.3,8.7,72,0.00,,,0.00,proprietary,2013-01-14 18:33:00,
2013-01-14 13:38:00,22.5,14.9,29.32,NW,321,4.6,5.9,71,0.00,,,0.00,proprietary,2013-01-14 18:38:00,
2013-01-14 13:43:00,22.5,14.8,29.32,North,357,4.5,5.9,71,0.00,,,0.00,proprietary,2013-01-14 18:43:00,
2013-01-14 13:48:00,22.8,15.2,29.32,NW,308,6.8,7.6,72,0.00,,,0.00,proprietary,2013-01-14 18:48:00,
2013-01-14 13:53:00,22.8,15.4,29.32,NW,311,3.1,5.8,72,0.00,,,0.00,proprietary,2013-01-14 18:53:00,
2013-01-14 13:58:00,22.9,15.5,29.33,NNW,329,5.6,7.1,72,0.00,,,0.00,proprietary,2013-01-14 18:58:00,
2013-01-14 14:03:00,23.0,15.2,29.33,NNW,327,4.2,5.8,71,0.00,,,0.00,proprietary,2013-01-14 19:03:00,
2013-01-14 14:08:00,22.8,15.4,29.34,NNW,334,5.3,7.4,72,0.00,,,0.00,proprietary,2013-01-14 19:08:00,
2013-01-14 14:13:00,22.8,15.2,29.34,NW,307,6.2,7.7,72,0.00,,,0.00,proprietary,2013-01-14 19:13:00,
2013-01-14 14:18:00,22.6,15.4,29.33,WNW,282,3.3,5.0,73,0.00,,,0.00,proprietary,2013-01-14 19:18:00,
2013-01-14 14:23:00,22.5,14.9,29.33,NW,325,2.4,3.8,72,0.00,,,0.00,proprietary,2013-01-14 19:23:00,
2013-01-14 14:28:00,22.8,15.1,29.34,NW,320,4.7,5.7,71,0.00,,,0.00,proprietary,2013-01-14 19:28:00,
2013-01-14 14:33:00,22.9,15.0,29.34,NNW,332,4.9,7.8,71,0.00,,,0.00,proprietary,2013-01-14 19:33:00,
2013-01-14 14:38:00,22.9,15.2,29.35,WNW,297,4.0,4.7,71,0.00,,,0.00,proprietary,2013-01-14 19:38:00,
2013-01-14 14:43:00,23.2,15.6,29.35,NW,322,4.1,5.9,71,0.00,,,0.00,proprietary,2013-01-14 19:43:00,
2013-01-14 14:48:00,23.0,15.1,29.35,NW,313,4.3,5.3,71,0.00,,,0.00,proprietary,2013-01-14 19:48:00,
2013-01-14 14:53:00,22.7,14.8,29.35,NW,310,4.8,6.8,71,0.00,,,0.00,proprietary,2013-01-14 19:53:00,
2013-01-14 14:59:00,22.7,15.2,29.35,NW,311,6.6,8.4,72,0.00,,,0.00,proprietary,2013-01-14 19:59:00,
2013-01-14 15:04:00,22.7,15.3,29.35,WNW,297,5.1,6.3,72,0.00,,,0.00,proprietary,2013-01-14 20:04:00,
2013-01-14 15:09:00,22.6,15.0,29.35,WNW,296,3.6,4.4,72,0.00,,,0.00,proprietary,2013-01-14 20:09:00,
2013-01-14 15:14:00,22.6,15.3,29.35,NW,319,3.1,6.1,73,0.00,,,0.00,proprietary,2013-01-14 20:14:00,
2013-01-14 15:19:00,22.8,15.2,29.35,West,280,1.7,2.6,72,0.00,,,0.00,proprietary,2013-01-14 20:19:00,
2013-01-14 15:24:00,22.9,15.3,29.36,WNW,297,3.9,4.6,72,0.00,,,0.00,proprietary,2013-01-14 20:24:00,
2013-01-14 15:29:00,22.8,14.9,29.37,NW,305,6.3,7.6,71,0.00,,,0.00,proprietary,2013-01-14 20:29:00,
2013-01-14 15:34:00,22.7,14.8,29.37,NW,307,4.9,5.8,71,0.00,,,0.00,proprietary,2013-01-14 20:34:00,
2013-01-14 15:39:00,22.8,15.1,29.36,NW,322,4.5,5.2,71,0.00,,,0.00,proprietary,2013-01-14 20:39:00,
2013-01-14 15:44:00,22.9,15.0,29.36,NW,313,0.8,1.8,71,0.00,,,0.00,proprietary,2013-01-14 20:44:00,
2013-01-14 15:49:00,23.0,15.3,29.36,NW,326,1.4,2.0,71,0.00,,,0.00,proprietary,2013-01-14 20:49:00,
2013-01-14 15:54:00,22.8,15.0,29.36,NW,305,3.8,5.0,71,0.00,,,0.00,proprietary,2013-01-14 20:54:00,
2013-01-14 15:59:00,22.9,15.3,29.37,NW,310,4.8,5.8,72,0.00,,,0.00,proprietary,2013-01-14 20:59:00,
2013-01-14 16:04:00,22.8,15.6,29.37,NW,312,5.1,6.5,73,0.00,,,0.00,proprietary,2013-01-14 21:04:00,
2013-01-14 16:09:00,22.8,15.5,29.37,WNW,298,1.4,2.6,73,0.00,,,0.00,proprietary,2013-01-14 21:09:00,
2013-01-14 16:14:00,22.8,15.4,29.38,West,279,2.8,3.7,72,0.00,,,0.00,proprietary,2013-01-14 21:14:00,
2013-01-14 16:19:00,22.8,15.6,29.39,SW,232,2.1,3.4,73,0.00,,,0.00,proprietary,2013-01-14 21:19:00,
2013-01-14 16:24:00,22.9,15.8,29.39,WSW,244,4.7,5.4,73,0.00,,,0.00,proprietary,2013-01-14 21:24:00,
2013-01-14 16:29:00,22.9,15.7,29.38,WNW,287,2.0,2.8,73,0.00,,,0.00,proprietary,2013-01-14 21:29:00,
2013-01-14 16:34:00,22.8,15.7,29.38,WNW,295,2.4,3.2,73,0.00,,,0.00,proprietary,2013-01-14 21:34:00,
2013-01-14 16:39:00,22.8,15.5,29.38,West,264,2.9,3.9,73,0.00,,,0.00,proprietary,2013-01-14 21:39:00,
2013-01-14 16:44:00,22.9,15.7,29.39,West,274,2.3,4.2,73,0.00,,,0.00,proprietary,2013-01-14 21:44:00,
2013-01-14 16:49:00,22.9,15.6,29.39,WSW,254,2.0,3.2,73,0.00,,,0.00,proprietary,2013-01-14 21:49:00,
2013-01-14 16:54:00,22.9,15.6,29.39,West,278,2.0,3.1,73,0.00,,,0.00,proprietary,2013-01-14 21:54:00,
2013-01-14 16:59:00,22.9,15.7,29.40,WSW,254,0.9,2.5,73,0.00,,,0.00,proprietary,2013-01-14 21:59:00,
2013-01-14 17:04:00,22.9,15.7,29.41,WSW,242,1.9,3.0,73,0.00,,,0.00,proprietary,2013-01-14 22:04:00,
2013-01-14 17:09:00,22.9,15.8,29.40,WNW,300,1.6,2.4,73,0.00,,,0.00,proprietary,2013-01-14 22:09:00,
2013-01-14 17:14:00,22.8,15.8,29.40,WSW,256,3.6,5.4,74,0.00,,,0.00,proprietary,2013-01-14 22:14:00,
2013-01-14 17:19:00,22.8,15.6,29.40,WSW,239,2.3,3.2,73,0.00,,,0.00,proprietary,2013-01-14 22:19:00,
2013-01-14 17:24:00,22.8,15.7,29.39,West,280,1.7,2.7,73,0.00,,,0.00,proprietary,2013-01-14 22:24:00,
2013-01-14 17:29:00,22.7,15.8,29.39,WNW,289,2.0,2.9,74,0.00,,,0.00,proprietary,2013-01-14 22:29:00,
2013-01-14 17:34:00,22.7,15.5,29.39,WNW,301,1.9,2.5,73,0.00,,,0.00,proprietary,2013-01-14 22:34:00,
2013-01-14 17:39:00,22.7,15.5,29.39,WSW,258,2.2,2.7,73,0.00,,,0.00,proprietary,2013-01-14 22:39:00,
2013-01-14 17:44:00,22.7,15.6,29.39,West,273,1.7,3.1,73,0.00,,,0.00,proprietary,2013-01-14 22:44:00,
2013-01-14 17:49:00,22.8,15.8,29.40,West,268,2.0,2.4,74,0.00,,,0.00,proprietary,2013-01-14 22:49:00,
2013-01-14 17:54:00,22.7,16.0,29.39,West,262,1.3,3.0,74,0.00,,,0.00,proprietary,2013-01-14 22:54:00,
2013-01-14 17:59:00,22.7,16.1,29.40,SW,229,1.9,2.7,75,0.00,,,0.00,proprietary,2013-01-14 22:59:00,
2013-01-14 18:04:00,22.6,15.9,29.39,WNW,297,1.9,2.7,74,0.00,,,0.00,proprietary,2013-01-14 23:04:00,
2013-01-14 18:09:00,22.6,15.9,29.39,West,263,0.7,1.2,75,0.00,,,0.00,proprietary,2013-01-14 23:09:00,
2013-01-14 18:14:00,22.7,16.1,29.39,SW,222,0.4,1.5,75,0.00,,,0.00,proprietary,2013-01-14 23:14:00,
2013-01-14 18:19:00,22.6,16.0,29.39,West,272,0.4,1.4,75,0.00,,,0.00,proprietary,2013-01-14 23:19:00,
2013-01-14 18:24:00,22.4,15.9,29.39,WSW,251,2.2,2.7,75,0.00,,,0.00,proprietary,2013-01-14 23:24:00,
2013-01-14 18:29:00,22.3,16.1,29.39,West,277,0.5,2.0,76,0.00,,,0.00,proprietary,2013-01-14 23:29:00,
2013-01-14 18:34:00,22.3,15.9,29.39,WNW,300,2.3,2.9,76,0.00,,,0.00,proprietary,2013-01-14 23:34:00,
2013-01-14 18:39:00,22.2,15.9,29.39,WSW,240,0.2,1.5,76,0.00,,,0.00,proprietary,2013-01-14 23:39:00,
2013-01-14 18:44:00,22.1,15.9,29.39,WSW,241,0.3,1.3,76,0.00,,,0.00,proprietary,2013-01-14 23:44:00,
2013-01-14 18:49:00,22.0,16.0,29.39,North,0,0.0,0.0,77,0.00,,,0.00,proprietary,2013-01-14 23:49:00,
2013-01-14 18:54:00,21.8,16.2,29.39,North,0,0.0,0.0,78,0.00,,,0.00,proprietary,2013-01-14 23:54:00,
2013-01-14 18:59:00,21.8,16.1,29.39,North,0,0.0,0.0,78,0.00,,,0.00,proprietary,2013-01-14 23:59:00,
2013-01-14 19:04:00,21.7,15.9,29.38,North,0,0.0,0.0,77,0.00,,,0.00,proprietary,2013-01-15 00:04:00,
2013-01-14 19:09:00,21.5,15.8,29.38,North,0,0.0,0.0,78,0.00,,,0.00,proprietary,2013-01-15 00:09:00,
2013-01-14 19:14:00,21.3,15.6,29.38,North,0,0.0,0.0,78,0.00,,,0.00,proprietary,2013-01-15 00:14:00,
2013-01-14 19:19:00,20.9,15.4,29.38,North,0,0.0,0.0,79,0.00,,,0.00,proprietary,2013-01-15 00:19:00,
2013-01-14 19:24:00,20.8,15.7,29.38,North,0,0.0,0.0,80,0.00,,,0.00,proprietary,2013-01-15 00:24:00,
2013-01-14 19:29:00,20.7,15.9,29.38,North,0,0.0,0.0,81,0.00,,,0.00,proprietary,2013-01-15 00:29:00,
2013-01-14 19:35:00,20.9,16.4,29.38,NW,311,1.8,2.1,82,0.00,,,0.00,proprietary,2013-01-15 00:35:00,
2013-01-14 19:40:00,21.1,16.6,29.37,NNW,339,1.4,1.6,82,0.00,,,0.00,proprietary,2013-01-15 00:40:00,
2013-01-14 19:45:00,20.9,16.3,29.37,North,0,0.0,0.0,82,0.00,,,0.00,proprietary,2013-01-15 00:45:00,
2013-01-14 19:50:00,20.5,16.2,29.37,North,0,0.0,0.0,82,0.00,,,0.00,proprietary,2013-01-15 00:50:00,
2013-01-14 19:55:00,20.3,16.0,29.37,North,0,0.0,0.0,83,0.00,,,0.00,proprietary,2013-01-15 00:55:00,
2013-01-14 20:00:00,19.6,15.4,29.37,North,0,0.0,0.0,83,0.00,,,0.00,proprietary,2013-01-15 01:00:00,
2013-01-14 20:05:00,19.0,14.9,29.37,North,0,0.0,0.0,83,0.00,,,0.00,proprietary,2013-01-15 01:05:00,
2013-01-14 20:10:00,18.5,14.5,29.37,North,0,0.0,0.0,84,0.00,,,0.00,proprietary,2013-01-15 01:10:00,
2013-01-14 20:15:00,18.1,14.3,29.37,North,0,0.0,0.0,84,0.00,,,0.00,proprietary,2013-01-15 01:15:00,
2013-01-14 20:20:00,17.8,13.9,29.37,North,0,0.0,0.0,84,0.00,,,0.00,proprietary,2013-01-15 01:20:00,
2013-01-14 20:25:00,17.8,14.4,29.36,North,0,0.0,0.0,86,0.00,,,0.00,proprietary,2013-01-15 01:25:00,
2013-01-14 20:30:00,17.4,14.1,29.36,North,0,0.0,0.0,86,0.00,,,0.00,proprietary,2013-01-15 01:30:00,
2013-01-14 20:36:00,17.1,13.9,29.36,North,0,0.0,0.0,86,0.00,,,0.00,proprietary,2013-01-15 01:36:00,
2013-01-14 20:41:00,16.8,13.7,29.36,North,0,0.0,0.0,87,0.00,,,0.00,proprietary,2013-01-15 01:41:00,
2013-01-14 20:46:00,16.6,13.7,29.36,North,0,0.0,0.0,87,0.00,,,0.00,proprietary,2013-01-15 01:46:00,
2013-01-14 20:52:00,16.4,13.5,29.36,North,0,0.0,0.0,88,0.00,,,0.00,proprietary,2013-01-15 01:52:00,
2013-01-14 20:57:00,16.6,14.0,29.36,North,0,0.0,0.0,89,0.00,,,0.00,proprietary,2013-01-15 01:57:00,
2013-01-14 21:02:00,16.7,14.1,29.36,North,0,0.0,0.0,89,0.00,,,0.00,proprietary,2013-01-15 02:02:00,
2013-01-14 21:07:00,16.6,14.0,29.36,North,0,0.0,0.0,89,0.00,,,0.00,proprietary,2013-01-15 02:07:00,
2013-01-14 21:12:00,16.4,13.8,29.36,North,0,0.0,0.0,89,0.00,,,0.00,proprietary,2013-01-15 02:12:00,
2013-01-14 21:17:00,16.0,13.4,29.36,North,0,0.0,0.0,88,0.00,,,0.00,proprietary,2013-01-15 02:17:00,
2013-01-14 21:22:00,15.7,13.1,29.36,North,0,0.0,0.0,89,0.00,,,0.00,proprietary,2013-01-15 02:22:00,
2013-01-14 21:27:00,15.5,13.0,29.36,North,0,0.0,0.0,89,0.00,,,0.00,proprietary,2013-01-15 02:27:00,
2013-01-14 21:32:00,15.4,12.9,29.36,North,0,0.0,0.0,89,0.00,,,0.00,proprietary,2013-01-15 02:32:00,
2013-01-14 21:37:00,15.3,12.9,29.36,WSW,250,0.1,1.1,89,0.00,,,0.00,proprietary,2013-01-15 02:37:00,
2013-01-14 21:42:00,15.1,12.7,29.36,North,0,0.0,0.0,89,0.00,,,0.00,proprietary,2013-01-15 02:42:00,
2013-01-14 21:47:00,15.0,12.6,29.36,North,0,0.0,0.0,89,0.00,,,0.00,proprietary,2013-01-15 02:47:00,
2013-01-14 21:52:00,15.0,12.8,29.36,North,0,0.0,0.0,90,0.00,,,0.00,proprietary,2013-01-15 02:52:00,
2013-01-14 21:58:00,14.7,12.3,29.36,North,0,0.0,0.0,89,0.00,,,0.00,proprietary,2013-01-15 02:58:00,
2013-01-14 22:03:00,14.4,12.0,29.35,North,0,0.0,0.0,89,0.00,,,0.00,proprietary,2013-01-15 03:03:00,
2013-01-14 22:05:00,14.2,11.9,29.35,North,0,0.0,0.0,90,0.00,,,0.00,proprietary,2013-01-15 03:05:00,
2013-01-14 22:06:00,14.2,11.9,29.35,North,0,0.0,0.0,90,0.00,,,0.00,proprietary,2013-01-15 03:06:00,
2013-01-14 22:08:00,14.3,12.0,29.35,North,0,0.0,0.0,90,0.00,,,0.00,proprietary,2013-01-15 03:08:00,
2013-01-14 22:16:00,14.2,11.9,29.35,North,0,0.0,0.0,90,0.00,,,0.00,proprietary,2013-01-15 03:16:00,
2013-01-14 22:22:00,14.2,12.1,29.35,SSE,147,2.5,3.0,90,0.00,,,0.00,proprietary,2013-01-15 03:22:00,
2013-01-14 22:27:00,14.4,12.3,29.35,SE,142,2.3,3.0,90,0.00,,,0.00,proprietary,2013-01-15 03:27:00,
2013-01-14 22:32:00,14.4,12.2,29.35,North,0,0.0,0.0,90,0.00,,,0.00,proprietary,2013-01-15 03:32:00,
2013-01-14 22:37:00,14.3,12.1,29.35,North,0,0.0,0.0,90,0.00,,,0.00,proprietary,2013-01-15 03:37:00,
2013-01-14 22:43:00,14.0,11.8,29.35,WNW,291,0.3,1.2,90,0.00,,,0.00,proprietary,2013-01-15 03:43:00,
2013-01-14 22:48:00,14.2,12.1,29.34,NW,309,3.1,3.3,90,0.00,,,0.00,proprietary,2013-01-15 03:48:00,
2013-01-14 22:54:00,14.3,12.1,29.34,NW,311,2.9,3.2,90,0.00,,,0.00,proprietary,2013-01-15 03:54:00,
2013-01-14 23:00:00,14.4,12.3,29.34,North,0,0.0,0.0,90,0.00,,,0.00,proprietary,2013-01-15 04:00:00,
2013-01-14 23:05:00,13.8,11.2,29.35,North,0,0.0,0.0,89,0.00,,,0.00,proprietary,2013-01-15 04:05:00,
2013-01-14 23:10:00,13.3,10.8,29.35,North,0,0.0,0.0,89,0.00,,,0.00,proprietary,2013-01-15 04:10:00,
2013-01-14 23:15:00,13.1,10.8,29.34,North,0,0.0,0.0,90,0.00,,,0.00,proprietary,2013-01-15 04:15:00,
2013-01-14 23:20:00,13.0,10.6,29.34,North,0,0.0,0.0,90,0.00,,,0.00,proprietary,2013-01-15 04:20:00,
2013-01-14 23:25:00,12.9,10.6,29.34,North,0,0.0,0.0,90,0.00,,,0.00,proprietary,2013-01-15 04:25:00,
2013-01-14 23:30:00,12.8,10.4,29.35,North,0,0.0,0.0,90,0.00,,,0.00,proprietary,2013-01-15 04:30:00,
2013-01-14 23:35:00,12.8,10.5,29.35,North,0,0.0,0.0,90,0.00,,,0.00,proprietary,2013-01-15 04:35:00,
2013-01-14 23:40:00,13.0,10.8,29.35,North,0,0.0,0.0,90,0.00,,,0.00,proprietary,2013-01-15 04:40:00,
2013-01-14 23:45:00,13.2,11.0,29.35,North,0,0.0,0.0,90,0.00,,,0.00,proprietary,2013-01-15 04:45:00,
2013-01-14 23:50:00,13.1,10.9,29.35,North,0,0.0,0.0,90,0.00,,,0.00,proprietary,2013-01-15 04:50:00,
2013-01-14 23:55:00,13.0,10.8,29.35,SSE,158,0.1,1.2,90,0.00,,,0.00,proprietary,2013-01-15 04:55:00,